Location: Champseau
(45.8333°N, 1.7667°E)
Time: 02:15:50
(UTC+00:00)

Envisat - Pass Details

Date: 30 September 2021
Orbit: 764 x 766 km, 98.2° (Epoch: 17 October)

Event Time Altitude Azimuth Distance (km) Brightness Sun altitude
Rises 04:11:01 0° 24° (NNE) 3,241 6.8 -17.9°
Reaches altitude 10° 04:13:41 10° 36° (NE) 2,310 6.2 -17.5°
Maximum altitude 04:17:58 27° 94° (E) 1,444 5.2 -16.7°
Drops below altitude 10° 04:22:14 10° 151° (SSE) 2,295 5.7 -16.0°
Sets 04:24:51 0° 164° (SSE) 3,216 6.3 -15.6°
